[[{"header":{"parameterUnit":"m.s-1","parameterCategory":1,"la1":30.2991,"la2":30.254,"lo1":-89.0895,"lo2":-89.0444,"dy":0.0017,"dx":0.0017,"nx":28,"ny":28,"refTime":"2025-04-29T21:00:00:Z","depth":0,"parameterNumber":2,"parameterNumberName":"U-component_of_WINDS"},"data":[0,0,0,0,0,0,0,0,0,0,0,0,0,0,0,0,0,0,0,0,0,0,0,0,0,0,0,0,0,0,0,0,0,0,0,0,0,0,0,0,0,0,0,0,0,0,0,0,0,0,0,0,0,0,0,0,0,0,-3.3075,-3.3075,0,-3.3074,-3.3074,-3.3074,-3.3022,-3.302,-3.3019,-3.3018,-3.3017,-3.3018,-3.302,0,0,0,0,0,0,0,0,0,0,0,0,0,-3.3032,-3.3033,-3.3075,-3.3075,-3.3075,-3.3074,-3.3074,-3.3074,-3.3022,-3.302,-3.3019,-3.3017,-3.3017,-3.3018,-3.302,0,0,0,0,0,0,0,0,0,0,0,0,0,-3.3043,-3.3033,-3.3075,-3.3049,-3.3046,-3.3074,-3.3074,-3.3074,-3.3022,-3.302,-3.3018,-3.3016,-3.3016,-3.3018,-3.302,-3.3073,0,0,-3.3026,-3.3027,0,0,0,0,0,0,0,0,-3.3042,-3.3044,-3.3052,-3.305,-3.3048,-3.3046,-3.3059,-3.3074,-3.3023,-3.3031,-3.3018,-3.3015,-3.3028,-3.3029,-3.3034,-3.3073,-3.3073,-3.3026,-3.3027,-3.3028,-3.3028,0,0,0,0,0,0,0,-3.3042,-3.3044,-3.3074,-3.3053,-3.305,-3.3037,-3.3037,-3.3061,-3.3041,-3.303,-3.3027,-3.3027,-3.3027,-3.3032,-3.3033,-3.3073,-3.3026,-3.3028,-3.3029,-3.303,-3.3157,-3.3159,0,0,0,0,0,0,-3.3044,-3.3044,-3.3074,-3.3074,-3.304,-3.304,-3.3039,-3.3049,-3.3041,-3.3038,-3.3029,-3.3025,-3.303,-3.3031,-3.3033,-3.3094,-3.3028,-3.303,-3.3031,-3.3154,-3.3157,-3.3159,0,0,0,0,0,0,-3.3044,-3.3047,-3.3074,-3.3058,-3.3061,-3.3043,-3.3054,-3.305,-3.3055,-3.304,-3.3036,-3.3038,-3.3028,-3.303,-3.3064,-3.3093,-3.3031,-3.3032,-3.3152,-3.3155,-3.3158,-3.3217,0,0,0,0,0,0,-3.3042,-3.3047,-3.3067,-3.3059,-3.3062,-3.3105,-3.3056,-3.3051,-3.3058,-3.3053,-3.3047,-3.3044,-3.3027,-3.3061,-3.3065,-3.3095,-3.3034,-3.3149,-3.3153,-3.3157,-3.3212,-3.3222,-3.323,0,0,0,0,0,-3.3041,-3.3083,-3.3068,-3.3072,-3.3085,-3.3106,-3.3108,-3.3087,-3.3061,-3.308,-3.3071,-3.3044,-3.309,-3.3065,-3.3069,-3.31,-3.3147,-3.3152,-3.3157,-3.3208,-3.322,-3.323,0,0,0,0,0,0,-3.3094,-3.3082,-3.3065,-3.3105,-3.3108,-3.3098,-3.3121,-3.31,-3.3109,-3.3104,-3.3077,-3.3077,-3.3114,-3.3111,-3.3083,-3.3151,-3.3114,-3.312,-3.3151,-3.3163,-3.3171,-3.317,-3.3035,0,0,0,0,0,-3.3111,-3.3129,-3.3117,-3.3154,-3.3156,-3.3139,-3.3147,-3.3131,-3.3132,-3.3133,-3.3126,-3.3128,-3.3143,-3.3153,-3.3166,-3.3213,-3.3211,-3.3236,-3.3245,-3.3253,-3.3258,-3.3282,-3.3293,-3.3176,-3.3176,-3.3176,0,0,-3.3145,-3.3141,-3.3153,-3.3165,-3.3164,-3.3184,-3.314,-3.3162,-3.3176,-3.3136,-3.3166,-3.3162,-3.3163,-3.3204,-3.3221,-3.3202,-3.329,-3.3259,-3.3265,-3.3266,-3.3289,-3.33,-3.331,-3.3179,-3.3179,-3.3178,0,0,-3.3217,-3.3216,-3.3246,-3.3247,-3.3248,-3.3236,-3.3244,-3.3238,-3.3234,-3.3264,-3.3235,-3.3252,-3.3278,-3.328,-3.3284,-3.336,-3.3336,-3.3365,-3.3411,-3.3436,-3.3445,-3.3453,-3.3479,-3.3489,-3.3371,-3.3371,-3.3371,0,-3.3259,-3.3286,-3.3265,-3.3289,-3.3295,-3.3261,-3.3292,-3.3295,-3.3299,-3.3305,-3.3284,-3.3316,-3.3315,-3.3355,-3.3374,-3.3379,-3.3387,-3.3364,-3.3445,-3.3453,-3.346,-3.3485,-3.3495,-3.3374,-3.3374,-3.3374,-3.3373,0,-3.3338,-3.3358,-3.3383,-3.3389,-3.3398,-3.3426,-3.3409,-3.3421,-3.3406,-3.3397,-3.3429,-3.3426,-3.3438,-3.3447,-3.3431,-3.3486,-3.3474,-3.345,-3.3411,-3.3475,-3.3498,-3.3507,-3.3379,-3.3378,-3.3377,-3.3376,0,0,-3.344,-3.3435,-3.3444,-3.3447,-3.3447,-3.3462,-3.3489,-3.3501,-3.3512,-3.3517,-3.3539,-3.3563,-3.3541,-3.3547,-3.3531,-3.3553,-3.3613,-3.3526,-3.3526,-3.3541,-3.3672,-3.3689,-3.37,-3.3598,-3.36,-3.3601,-3.3671,0,-3.3508,-3.3553,-3.3536,-3.3582,-3.3601,-3.357,-3.3594,-3.3596,-3.359,-3.3605,-3.3598,-3.3615,-3.3585,-3.3588,-3.3609,-3.3601,-3.3638,-3.3596,-3.3617,-3.3618,-3.3616,-3.3712,-3.3729,-3.3795,-3.368,-3.3682,-3.3683,0,-3.3593,-3.3602,-3.3651,-3.3648,-3.3655,-3.3677,-3.3687,-3.3702,-3.3705,-3.3699,-3.3706,-3.3686,-3.3713,-3.3677,-3.3714,-3.3686,-3.3694,-3.3692,-3.3694,-3.3693,-3.3653,-3.3712,-3.3816,-3.3826,-3.3697,-3.3696,-3.3695,0,-3.3661,-3.3686,-3.3718,-3.3722,-3.372,-3.3735,-3.3735,-3.3736,-3.3745,-3.3755,-3.376,-3.3773,-3.378,-3.379,-3.3775,-3.3751,-3.3814,-3.3777,-3.3809,-3.381,-3.3822,-3.3821,-3.3927,-3.3831,-3.3831,-3.383,-3.383,0,-3.3737,-3.3768,-3.3749,-3.3768,-3.3802,-3.3783,-3.3817,-3.3814,-3.3816,-3.3834,-3.381,-3.3828,-3.3808,-3.3825,-3.3814,-3.3845,-3.3849,-3.3845,-3.3841,-3.3845,-3.3846,-3.3849,-3.3843,-3.3833,-3.3832,-3.3832,-3.3831,0,-3.3817,-3.3806,-3.3839,-3.3835,-3.3835,-3.386,-3.3857,-3.3876,-3.3869,-3.3893,-3.3897,-3.3886,-3.3905,-3.3891,-3.391,-3.3902,-3.3944,-3.3935,-3.3943,-3.3939,-3.3972,-3.3969,-3.4082,-3.4096,-3.3993,-3.3994,-3.3994,0,-3.3866,-3.3889,-3.3888,-3.3899,-3.3901,-3.3919,-3.3928,-3.3912,-3.3922,-3.3929,-3.3946,-3.3963,-3.3975,-3.4006,-3.4,-3.4014,-3.4004,-3.4043,-3.4005,-3.401,-3.4003,-3.4001,-3.4003,-3.4049,-3.4051,-3.4052,-3.4052,0,-3.3953,-3.3947,-3.3961,-3.3974,-3.3986,-3.3995,-3.4003,-3.4013,-3.3996,-3.401,-3.4029,-3.4038,-3.4058,-3.4074,-3.4087,-3.4087,-3.4067,-3.4065,-3.4073,-3.4076,-3.408,-3.4077,-3.3961,-3.4061,-3.406,-3.406,-3.4059,-3.4059,-3.4018,-3.4037,-3.404,-3.4057,-3.4061,-3.4069,-3.4086,-3.4082,-3.4098,-3.4112,-3.4102,-3.4124,-3.4128,-3.4142,-3.4146,-3.4163,-3.4147,-3.4159,-3.4162,-3.4164,-3.4168,-3.4079,-3.4166,-3.4165,-3.4165,-3.4165,-3.4165,0,-3.4103,-3.4104,-3.412,-3.4131,-3.4145,-3.4127,-3.4134,-3.4147,-3.4167,-3.4173,-3.4186,-3.4208,-3.4225,-3.422,-3.4235,-3.425,-3.4242,-3.4255,-3.4252,-3.4253,-3.4182,-3.4173,-3.4262,-3.4262,-3.4262,-3.4262,-3.4262,-3.4261,-3.4148,-3.418,-3.4174,-3.4208,-3.4209,-3.4231,-3.4237,-3.4244,-3.4248,-3.4274,-3.4288,-3.4286,-3.4288,-3.4303,-3.4318,-3.4316,-3.4322,-3.4339,-3.4334,-3.4267,-3.4258,-3.4248,-3.424,-3.4341,-3.4341,-3.4402,-3.4403,-3.4403]},{"header":{"parameterUnit":"m.s-1","parameterCategory":1,"la1":30.2991,"la2":30.254,"lo1":-89.0895,"lo2":-89.0444,"dy":0.0017,"dx":0.0017,"nx":28,"ny":28,"refTime":"2025-04-29T21:00:00:Z","depth":0,"parameterNumber":3,"parameterNumberName":"V-component_of_WINDS"},"data":[0,0,0,0,0,0,0,0,0,0,0,0,0,0,0,0,0,0,0,0,0,0,0,0,0,0,0,0,0,0,0,0,0,0,0,0,0,0,0,0,0,0,0,0,0,0,0,0,0,0,0,0,0,0,0,0,0,0,4.0916,4.0916,0,4.0948,4.0948,4.0948,4.0935,4.0934,4.0933,4.0933,4.0963,4.0964,4.0966,0,0,0,0,0,0,0,0,0,0,0,0,0,4.0842,4.0843,4.0916,4.0916,4.0916,4.0947,4.0948,4.0948,4.0935,4.0934,4.0933,4.0932,4.0962,4.0964,4.0966,0,0,0,0,0,0,0,0,0,0,0,0,0,4.0874,4.0844,4.0916,4.0914,4.0914,4.0947,4.0948,4.0948,4.0935,4.0934,4.0933,4.0932,4.0962,4.0964,4.0966,4.1003,0,0,4.0973,4.0974,0,0,0,0,0,0,0,0,4.0872,4.0876,4.0914,4.0914,4.0914,4.0936,4.0933,4.0967,4.0936,4.0927,4.0933,4.0931,4.0955,4.0958,4.0966,4.1004,4.1006,4.0973,4.0975,4.0976,4.0976,0,0,0,0,0,0,0,4.087,4.0875,4.0928,4.0914,4.0914,4.0911,4.0914,4.0939,4.0947,4.0928,4.0927,4.0931,4.0955,4.0964,4.0967,4.1006,4.0973,4.0975,4.0977,4.0978,4.1077,4.1078,0,0,0,0,0,0,4.0868,4.0873,4.0927,4.0929,4.089,4.0913,4.0917,4.093,4.0947,4.0948,4.0932,4.093,4.096,4.0964,4.0968,4.1012,4.0976,4.0978,4.0979,4.1076,4.1077,4.1079,0,0,0,0,0,0,4.0866,4.0873,4.0926,4.0901,4.0907,4.0915,4.0931,4.0931,4.0941,4.095,4.0951,4.094,4.096,4.0964,4.0995,4.1013,4.0979,4.0981,4.1074,4.1076,4.1078,4.1101,0,0,0,0,0,0,4.0864,4.0872,4.0886,4.0901,4.0909,4.0953,4.0932,4.0933,4.0945,4.0943,4.0957,4.0959,4.0959,4.0991,4.0997,4.1015,4.0983,4.1073,4.1075,4.1077,4.1099,4.1104,4.1108,0,0,0,0,0,4.0861,4.0891,4.0887,4.0894,4.0927,4.0954,4.0958,4.0959,4.0946,4.0961,4.0967,4.0958,4.101,4.0995,4.1001,4.102,4.1071,4.1074,4.1077,4.1097,4.1103,4.1108,0,0,0,0,0,0,4.0877,4.0893,4.0889,4.0924,4.0938,4.0952,4.097,4.0965,4.0982,4.0979,4.0978,4.0982,4.1013,4.102,4.1002,4.1057,4.1039,4.1043,4.1052,4.1057,4.1062,4.106,4.0985,0,0,0,0,0,4.0885,4.0906,4.0918,4.0948,4.0956,4.0962,4.0973,4.0973,4.0987,4.0992,4.1,4.1013,4.1033,4.1045,4.1064,4.11,4.1103,4.1116,4.1121,4.1125,4.1128,4.1149,4.1155,4.1088,4.1088,4.1088,0,0,4.09,4.0912,4.0925,4.0952,4.0962,4.0984,4.0966,4.099,4.1006,4.0995,4.1025,4.1031,4.1046,4.108,4.1095,4.1086,4.1147,4.1128,4.1131,4.1133,4.1152,4.1158,4.1164,4.109,4.109,4.1089,0,0,4.094,4.0951,4.0978,4.0989,4.1006,4.101,4.1016,4.1031,4.1035,4.1065,4.1058,4.1076,4.111,4.1121,4.1131,4.1176,4.1169,4.1182,4.1205,4.1225,4.123,4.1235,4.1252,4.1258,4.1185,4.1186,4.1186,0,4.0957,4.099,4.0992,4.1016,4.1028,4.1021,4.1048,4.1058,4.108,4.1088,4.1078,4.112,4.113,4.1166,4.1177,4.1186,4.1193,4.118,4.123,4.1234,4.1239,4.1255,4.1261,4.1187,4.1187,4.1187,4.1187,0,4.1011,4.1034,4.1054,4.1076,4.109,4.1116,4.112,4.1134,4.1133,4.1138,4.1168,4.118,4.12,4.1209,4.1207,4.1245,4.124,4.123,4.1211,4.1247,4.1261,4.1267,4.1189,4.1189,4.1188,4.1188,0,0,4.1061,4.1085,4.1092,4.1102,4.112,4.1138,4.1163,4.1185,4.1197,4.1212,4.1233,4.1262,4.1254,4.1265,4.1264,4.1282,4.1318,4.127,4.127,4.1278,4.1361,4.1369,4.1376,4.1313,4.1314,4.1315,4.136,0,4.1103,4.1148,4.115,4.1191,4.1213,4.1207,4.1229,4.1242,4.1247,4.1266,4.1272,4.1292,4.1279,4.1286,4.1303,4.131,4.1334,4.1306,4.1333,4.1334,4.1329,4.1383,4.1391,4.1433,4.1366,4.1367,4.1367,0,4.1157,4.1176,4.1219,4.1236,4.1245,4.1264,4.1285,4.1303,4.1318,4.132,4.1334,4.1331,4.1357,4.1338,4.1373,4.1354,4.1365,4.137,4.1371,4.1374,4.1353,4.1387,4.1446,4.1452,4.1376,4.1376,4.1375,0,4.119,4.1226,4.1256,4.1265,4.1285,4.1299,4.1308,4.1322,4.1335,4.1352,4.1361,4.138,4.1391,4.1406,4.1409,4.1395,4.1445,4.1426,4.1447,4.1448,4.1458,4.1457,4.1519,4.1465,4.1465,4.1465,4.1465,0,4.1237,4.1264,4.1272,4.1291,4.1321,4.1323,4.1352,4.136,4.1373,4.1393,4.1388,4.1407,4.1409,4.1428,4.143,4.1459,4.1464,4.1467,4.1467,4.1468,4.1467,4.1475,4.1472,4.1466,4.1466,4.1466,4.1465,0,4.1279,4.1285,4.1318,4.1335,4.1339,4.1361,4.1374,4.1392,4.1398,4.1423,4.1429,4.1437,4.146,4.1464,4.149,4.1492,4.1527,4.1524,4.1522,4.1522,4.1543,4.1541,4.1612,4.1622,4.1561,4.1561,4.1562,0,4.1308,4.1329,4.1348,4.1361,4.1371,4.1393,4.1407,4.1409,4.1424,4.1443,4.1459,4.1481,4.1499,4.1535,4.1543,4.1564,4.1561,4.1585,4.1564,4.1564,4.1562,4.1561,4.1563,4.1589,4.1589,4.159,4.159,0,4.136,4.1362,4.1383,4.1404,4.1421,4.1438,4.1454,4.1465,4.147,4.1486,4.151,4.1524,4.1551,4.1574,4.1594,4.1602,4.1597,4.1597,4.1603,4.1604,4.1602,4.1604,4.1533,4.1595,4.1595,4.1594,4.1594,4.1594,4.1397,4.1416,4.1432,4.1455,4.1467,4.1483,4.1501,4.1509,4.1529,4.1552,4.1552,4.1578,4.1593,4.162,4.163,4.165,4.1642,4.1651,4.1653,4.1656,4.1658,4.1599,4.1654,4.1653,4.1653,4.1653,4.1653,0,4.1449,4.146,4.1481,4.1504,4.1522,4.1516,4.1534,4.1549,4.1572,4.1587,4.1606,4.1633,4.1655,4.1665,4.1686,4.17,4.1698,4.1706,4.1705,4.1707,4.1663,4.1656,4.1707,4.1707,4.1707,4.1707,4.1707,4.1707,4.1478,4.151,4.1514,4.1552,4.1562,4.1588,4.1598,4.1612,4.1624,4.1656,4.1674,4.1681,4.1694,4.1716,4.1736,4.1738,4.1746,4.1755,4.1756,4.1715,4.171,4.1705,4.1698,4.1756,4.1756,4.1798,4.1798,4.1798]}]]